Ashtabula, OH

5:15 PM EDT on April 28, 2017 (GMT -0400)
Ashtabula County

Weather History for KHZY - January, 2013

Change the Weather History Date:

Saturday, January 26, 2013

  Actual Average (KGKJ) Record (KGKJ)
Temperature  
Mean Temperature 20 °F -  
Max Temperature 25 °F 34 °F 72 °F (1950)
Min Temperature 15 °F 15 °F -7 °F (1968)
Degree Days  
Heating Degree Days 45    
Moisture  
Dew Point 15 °F    
Average Humidity 79    
Maximum Humidity 86    
Minimum Humidity 68    
Precipitation  
Precipitation 0.02 in - - ()
Sea Level Pressure  
Sea Level Pressure 30.23 in    
Wind  
Wind Speed 4 mph (West)    
Max Wind Speed 10 mph    
Max Gust Speed -    
Visibility 3 miles    
Events Snow    
Averages and records for this station are not official NWS values.
T = Trace of Precipitation, MM = Missing Value Source: NWS Daily Summary

Daily Weather History Graph

Daily Weather History Graph

Search for Another Location

Airport or City:

Trip Planner

Search our weather history database for the weather conditions in past years. The results will help you decide how hot, cold, wet, or windy it might be!

Date:

Astronomy

Jan. 26, 2013 Rise Set
Actual Time 7:40 AM EST 5:30 PM EST
Civil Twilight 7:10 AM EST 6:00 PM EST
Nautical Twilight 6:36 AM EST 6:34 PM EST
Astronomical Twilight 6:04 AM EST 7:07 PM EST
Moon 5:25 PM EST (1/26) 6:56 AM EST (1/26)
Length of Visible Light 10h 50m
Length of Day
9h 50m
Full, 100% of the Moon is Illuminated
Jan 26
Full
Jan 26
Full
Feb 3
Last Quarter
Feb 10
New
Feb 17
First Quarter

Hourly Weather History & Observations

Time (EST) Temp. Windchill Dew Point Humidity Pressure Visibility Wind Dir Wind Speed Gust Speed Precip Events Conditions
12:15 AM 15.8 °F 8.6 °F 10.4 °F 79% 30.06 in 3.0 mi SSW 4.6 mph - 0.00 in Snow Light Snow
12:53 AM 15.1 °F 9.4 °F 10.0 °F 80% 30.11 in 6.0 mi South 3.5 mph - 0.00 in Snow Light Snow
1:53 AM 16.0 °F 7.4 °F 10.9 °F 81% 30.11 in 7.0 mi South 5.8 mph - 0.00 in Snow Light Snow
2:53 AM 16.0 °F 7.4 °F 10.9 °F 81% 30.12 in 5.0 mi SSW 5.8 mph - 0.00 in Snow Light Snow
3:53 AM 17.1 °F 10.0 °F 12.0 °F 81% 30.13 in 4.0 mi SSW 4.6 mph - 0.00 in Snow Light Snow
4:15 AM 17.6 °F 9.3 °F 12.2 °F 79% 30.08 in 3.0 mi SSW 5.8 mph - 0.00 in Snow Light Snow
4:53 AM 17.1 °F 7.6 °F 12.0 °F 81% 30.14 in 3.0 mi SSW 6.9 mph - 0.00 in Snow Light Snow
5:06 AM 17.6 °F 10.7 °F 12.2 °F 79% 30.09 in 2.5 mi SSW 4.6 mph - 0.00 in Snow Light Snow
5:24 AM 17.6 °F 10.7 °F 12.2 °F 79% 30.09 in 3.0 mi SSW 4.6 mph - 0.00 in Snow Light Snow
5:33 AM 17.6 °F 10.7 °F 12.2 °F 79% 30.09 in 2.0 mi SW 4.6 mph - 0.00 in Snow Light Snow
5:53 AM 18.0 °F 12.7 °F 12.9 °F 81% 30.15 in 2.5 mi SW 3.5 mph - 0.00 in Snow Light Snow
6:08 AM 17.6 °F 9.3 °F 12.2 °F 79% 30.10 in 3.0 mi SW 5.8 mph - 0.00 in Snow Light Snow
6:53 AM 18.0 °F - 12.9 °F 81% 30.16 in 2.5 mi Calm Calm - 0.00 in Snow Light Snow
7:03 AM 17.6 °F - 12.2 °F 79% 30.12 in 2.5 mi Calm Calm - 0.00 in Snow Light Snow
7:11 AM 17.6 °F - 12.2 °F 79% 30.12 in 3.0 mi Calm Calm - 0.00 in Snow Light Snow
7:34 AM 17.6 °F - 12.2 °F 79% 30.12 in 3.0 mi Calm Calm - 0.00 in Snow Light Snow
7:53 AM 18.0 °F 12.7 °F 12.9 °F 81% 30.18 in 2.0 mi SSW 3.5 mph - 0.00 in Snow Light Snow
8:03 AM 17.6 °F - 12.2 °F 79% 30.14 in 1.8 mi Calm Calm - 0.00 in Snow Light Snow
8:12 AM 17.6 °F - 14.0 °F 86% 30.14 in 1.5 mi Calm Calm - 0.00 in Snow Light Snow
8:36 AM 19.4 °F - 14.0 °F 80% 30.16 in 1.2 mi Calm Calm - 0.00 in Snow Light Snow
8:43 AM 19.4 °F - 14.0 °F 80% 30.16 in 1.0 mi Calm Calm - 0.00 in Snow Light Snow
8:53 AM 19.0 °F - 14.0 °F 81% 30.22 in 1.0 mi Calm Calm - 0.01 in Snow Light Snow
9:00 AM 19.4 °F 14.3 °F 15.8 °F 86% 30.17 in 0.8 mi SSW 3.5 mph - 0.00 in Snow Light Snow
9:22 AM 19.4 °F 14.3 °F 15.8 °F 86% 30.15 in 1.0 mi South 3.5 mph - 0.00 in Snow Light Snow
9:30 AM 19.4 °F 14.3 °F 15.8 °F 86% 30.15 in 1.2 mi South 3.5 mph - 0.00 in Snow Light Snow
9:53 AM 19.9 °F - 16.0 °F 85% 30.21 in 1.8 mi Calm Calm - 0.00 in Snow Light Snow
10:01 AM 19.4 °F 14.3 °F 15.8 °F 86% 30.17 in 2.0 mi SW 3.5 mph - 0.00 in Snow Light Snow
10:29 AM 21.2 °F - 15.8 °F 80% 30.18 in 3.0 mi Calm Calm - 0.00 in   Haze
10:53 AM 21.0 °F 16.2 °F 17.1 °F 85% 30.24 in 3.0 mi WSW 3.5 mph - 0.00 in Snow Light Snow
11:03 AM 21.2 °F 14.9 °F 17.6 °F 86% 30.19 in 2.5 mi WSW 4.6 mph - 0.00 in Snow Light Snow
11:10 AM 21.2 °F - 17.6 °F 86% 30.19 in 3.0 mi Calm Calm - 0.00 in Snow Light Snow
11:38 AM 23.0 °F 17.0 °F 17.6 °F 80% 30.21 in 2.5 mi NW 4.6 mph - 0.00 in Snow Light Snow
11:45 AM 23.0 °F 18.4 °F 17.6 °F 80% 30.21 in 2.0 mi Variable 3.5 mph - 0.00 in Snow Light Snow
11:53 AM 24.1 °F - 17.1 °F 75% 30.26 in 1.8 mi Calm Calm - 0.00 in Snow Light Snow
12:08 PM 24.8 °F 20.5 °F 17.6 °F 74% 30.22 in 1.8 mi Variable 3.5 mph - 0.00 in Snow Light Snow
12:28 PM 24.8 °F - 19.4 °F 80% 30.22 in 2.0 mi Calm Calm - 0.00 in Snow Light Snow
12:35 PM 24.8 °F - 19.4 °F 80% 30.22 in 3.0 mi Calm Calm - 0.00 in Snow Light Snow
12:53 PM 25.0 °F - 18.0 °F 75% 30.27 in 4.0 mi Calm Calm - 0.00 in Snow Light Snow
1:31 PM 24.8 °F 17.9 °F 17.6 °F 74% 30.23 in 3.0 mi NNW 5.8 mph - 0.00 in Snow Light Snow
1:38 PM 24.8 °F 17.9 °F 17.6 °F 74% 30.23 in 5.0 mi NW 5.8 mph - 0.00 in Snow Light Snow
1:53 PM 25.0 °F 19.3 °F 17.1 °F 72% 30.27 in 7.0 mi NNW 4.6 mph - 0.00 in   Overcast
2:15 PM 24.8 °F 17.9 °F 17.6 °F 74% 30.23 in 1.8 mi NW 5.8 mph - 0.00 in Snow Light Snow
2:30 PM 24.8 °F 19.1 °F 17.6 °F 74% 30.24 in 1.0 mi WNW 4.6 mph - 0.00 in Snow Light Snow
2:38 PM 24.8 °F 17.9 °F 17.6 °F 74% 30.24 in 0.8 mi NW 5.8 mph - 0.00 in Snow Light Snow
2:47 PM 24.8 °F 16.1 °F 17.6 °F 74% 30.25 in 0.8 mi NW 8.1 mph - 0.00 in Snow Light Snow
2:53 PM 23.0 °F 13.1 °F 18.0 °F 81% 30.30 in 0.8 mi NW 9.2 mph - 0.01 in Snow Light Snow
3:01 PM 24.8 °F 17.9 °F 17.6 °F 74% 30.26 in 1.2 mi Variable 5.8 mph - 0.00 in Snow Light Snow
3:18 PM 24.8 °F 15.3 °F 17.6 °F 74% 30.26 in 1.0 mi WNW 9.2 mph - 0.00 in Snow Light Snow
3:20 PM 24.8 °F 14.6 °F 17.6 °F 74% 30.26 in 0.8 mi NW 10.4 mph - 0.00 in Snow Light Snow
3:24 PM 23.0 °F 13.1 °F 17.6 °F 80% 30.26 in 0.8 mi WNW 9.2 mph - 0.00 in Snow Light Snow
3:47 PM 23.0 °F 15.8 °F 17.6 °F 80% 30.28 in 1.0 mi WNW 5.8 mph - 0.00 in Snow Light Snow
3:53 PM 23.0 °F 12.4 °F 18.0 °F 81% 30.33 in 1.0 mi NW 10.4 mph - 0.00 in Snow Light Snow
4:10 PM 23.0 °F 14.7 °F 17.6 °F 80% 30.29 in 1.0 mi WNW 6.9 mph - 0.00 in Snow Light Snow
4:30 PM 23.0 °F 14.7 °F 17.6 °F 80% 30.29 in 1.2 mi WNW 6.9 mph - 0.00 in Snow Light Snow
4:39 PM 23.0 °F 15.8 °F 17.6 °F 80% 30.30 in 1.0 mi West 5.8 mph - 0.00 in Snow Light Snow
4:46 PM 23.0 °F 15.8 °F 17.6 °F 80% 30.30 in 1.2 mi WNW 5.8 mph - 0.00 in Snow Light Snow
4:53 PM 23.0 °F 15.8 °F 17.1 °F 78% 30.35 in 1.2 mi WNW 5.8 mph - 0.00 in Snow Light Snow
5:33 PM 21.2 °F 13.6 °F 17.6 °F 86% 30.32 in 2.0 mi West 5.8 mph - 0.00 in Snow Light Snow
5:53 PM 21.9 °F 15.7 °F 16.0 °F 78% 30.37 in 4.0 mi West 4.6 mph - 0.00 in Snow Light Snow
6:53 PM 21.9 °F 15.7 °F 16.0 °F 78% 30.39 in 7.0 mi West 4.6 mph - 0.00 in   Overcast
7:53 PM 23.0 °F 17.0 °F 14.0 °F 68% 30.43 in 10.0 mi WNW 4.6 mph - N/A   Overcast
8:13 PM 23.0 °F 17.0 °F 14.0 °F 68% 30.39 in 10.0 mi West 4.6 mph - N/A   Overcast
8:53 PM 21.0 °F 16.2 °F 12.9 °F 71% 30.43 in 10.0 mi WNW 3.5 mph - N/A   Mostly Cloudy
9:53 PM 18.0 °F - 12.0 °F 78% 30.44 in 8.0 mi Calm Calm - N/A   Overcast
10:53 PM 16.0 °F - 10.9 °F 81% 30.46 in 7.0 mi Calm Calm - N/A   Overcast
11:53 PM 18.0 °F - 12.9 °F 81% 30.47 in 7.0 mi Calm Calm - N/A   Overcast